Total_Precipitation_Accumulation
0.00 0.00 0.00 0.00 0.00 0.00 0.00 0.00 0.00 0.01 0.01 0.02 0.06 0.08 0.13 0.15 0.19 0.23 0.32 0.45 0.44 0.47 0.60 0.78 1.16 1.56 1.93 2.31 2.51 2.45 2.29 2.29 2.42 2.51 2.38 2.55 2.85 3.16 3.39 3.34 3.27 3.19 3.15 3.10
0.00 0.00 0.00 0.00 0.00 0.00 0.00 0.00 0.01 0.02 0.02 0.02 0.07 0.17 0.23 0.24 0.28 0.33 0.40 0.52 0.53 0.57 0.66 0.85 1.22 1.58 1.99 2.31 2.33 2.44 2.58 2.64 2.52 2.77 3.01 3.30 3.63 3.81 4.07 4.32 4.39 4.28 4.03 3.79
0.00 0.00 0.00 0.00 0.00 0.00 0.00 0.00 0.01 0.02 0.03 0.05 0.11 0.25 0.32 0.39 0.37 0.42 0.49 0.64 0.66 0.74 0.83 0.99 1.29 1.53 1.80 2.18 2.39 2.54 2.79 2.90 2.87 3.25 3.74 4.22 4.52 4.55 4.58 4.64 4.72 4.68 4.28 3.92
0.00 0.00 0.00 0.00 0.00 0.00 0.00 0.00 0.00 0.02 0.04 0.09 0.11 0.28 0.40 0.43 0.47 0.47 0.53 0.54 0.60 0.61 0.68 0.88 1.14 1.51 1.63 1.94 2.16 2.34 2.68 3.06 3.39 3.80 4.30 4.84 5.11 5.27 5.18 4.86 4.62 4.35 3.97 3.60
0.00 0.00 0.00 0.00 0.00 0.00 0.00 0.00 0.01 0.03 0.05 0.08 0.09 0.22 0.46 0.50 0.48 0.52 0.55 0.53 0.54 0.52 0.55 0.69 0.84 1.12 1.41 1.66 1.90 2.18 2.48 2.92 3.54 4.24 4.84 5.28 5.58 5.53 5.11 4.63 4.07 3.66 3.34 3.06
0.00 0.00 0.00 0.00 0.00 0.00 0.00 0.00 0.02 0.04 0.06 0.12 0.10 0.21 0.48 0.62 0.63 0.65 0.59 0.57 0.56 0.56 0.56 0.59 0.68 0.90 1.11 1.31 1.58 1.94 2.37 2.72 3.28 3.92 4.52 4.90 5.15 5.08 4.66 4.03 3.50 3.13 2.79 2.51
0.01 0.01 0.01 0.00 0.00 0.00 0.00 0.00 0.03 0.07 0.09 0.13 0.14 0.27 0.58 0.72 0.74 0.68 0.60 0.61 0.61 0.56 0.57 0.60 0.63 0.74 0.88 1.06 1.27 1.56 1.95 2.44 2.81 3.20 3.74 3.91 3.94 3.74 3.35 3.08 2.84 2.48 2.14 1.88
0.03 0.04 0.03 0.01 0.00 0.00 0.00 0.00 0.03 0.08 0.10 0.16 0.26 0.46 0.73 0.77 0.79 0.69 0.65 0.61 0.58 0.56 0.52 0.61 0.63 0.71 0.87 1.02 1.21 1.37 1.63 1.99 2.30 2.45 2.62 2.64 2.54 2.45 2.31 2.12 1.90 1.67 1.45 1.33
0.05 0.06 0.03 0.01 0.01 0.01 0.01 0.01 0.03 0.04 0.06 0.16 0.38 0.61 0.91 1.06 0.98 0.82 0.74 0.66 0.62 0.62 0.61 0.64 0.64 0.71 0.84 0.93 1.09 1.19 1.22 1.36 1.46 1.53 1.58 1.64 1.62 1.53 1.50 1.41 1.26 1.15 0.99 0.87
0.04 0.05 0.02 0.01 0.01 0.01 0.01 0.01 0.02 0.05 0.11 0.20 0.38 0.66 0.88 1.09 1.02 0.91 0.83 0.74 0.67 0.69 0.70 0.68 0.64 0.67 0.68 0.71 0.81 0.93 0.99 0.99 0.97 1.00 0.99 1.06 1.04 0.98 0.92 0.85 0.79 0.70 0.62 0.54
0.05 0.06 0.04 0.03 0.03 0.03 0.02 0.02 0.04 0.06 0.08 0.17 0.39 0.73 0.91 1.22 1.26 1.10 0.93 0.76 0.73 0.80 0.77 0.71 0.68 0.61 0.56 0.57 0.59 0.64 0.74 0.82 0.84 0.82 0.79 0.76 0.73 0.69 0.64 0.61 0.57 0.48 0.43 0.39
0.07 0.11 0.10 0.06 0.05 0.05 0.04 0.05 0.06 0.13 0.12 0.14 0.40 1.01 1.17 1.30 1.35 1.24 1.13 0.97 0.81 0.76 0.73 0.65 0.60 0.55 0.50 0.49 0.47 0.49 0.54 0.56 0.62 0.65 0.68 0.67 0.59 0.55 0.51 0.47 0.46 0.44 0.40 0.36
0.07 0.18 0.28 0.25 0.20 0.12 0.09 0.07 0.07 0.09 0.12 0.19 0.47 1.12 1.45 1.47 1.34 1.25 1.19 1.09 0.98 0.97 0.90 0.77 0.63 0.55 0.52 0.49 0.49 0.49 0.47 0.46 0.47 0.44 0.44 0.47 0.45 0.42 0.39 0.35 0.34 0.33 0.33 0.32
0.08 0.23 0.41 0.59 0.46 0.23 0.15 0.11 0.10 0.13 0.20 0.27 0.49 0.85 1.06 1.37 1.48 1.32 1.18 1.13 1.09 1.09 0.95 0.79 0.68 0.60 0.54 0.50 0.51 0.51 0.46 0.41 0.40 0.35 0.33 0.37 0.37 0.36 0.35 0.33 0.31 0.29 0.29 0.28
0.13 0.33 0.36 0.39 0.22 0.18 0.18 0.17 0.17 0.19 0.24 0.40 0.65 0.92 1.15 1.44 1.47 1.34 1.11 1.02 1.04 1.04 0.99 0.91 0.81 0.72 0.60 0.52 0.50 0.49 0.47 0.42 0.39 0.37 0.34 0.34 0.34 0.34 0.33 0.34 0.32 0.28 0.26 0.23
0.15 0.30 0.32 0.33 0.26 0.24 0.28 0.26 0.28 0.32 0.36 0.49 0.75 1.10 1.30 1.28 1.17 1.11 1.02 0.97 1.07 1.20 1.26 1.22 1.06 0.88 0.73 0.65 0.59 0.55 0.51 0.44 0.38 0.37 0.38 0.38 0.38 0.38 0.36 0.33 0.32 0.30 0.26 0.23
0.17 0.32 0.42 0.43 0.32 0.38 0.60 0.49 0.46 0.48 0.48 0.57 0.78 0.90 0.91 0.96 0.99 1.00 1.01 1.05 1.22 1.34 1.31 1.18 1.07 0.94 0.82 0.76 0.69 0.62 0.58 0.50 0.45 0.44 0.43 0.42 0.40 0.39 0.35 0.31 0.30 0.28 0.24 0.21
0.18 0.33 0.41 0.38 0.42 0.72 0.77 0.47 0.43 0.42 0.39 0.41 0.49 0.53 0.63 0.76 0.89 1.00 1.09 1.21 1.35 1.44 1.44 1.33 1.15 1.01 0.87 0.76 0.67 0.61 0.54 0.50 0.48 0.47 0.45 0.42 0.38 0.37 0.33 0.30 0.28 0.26 0.22 0.20
0.09 0.26 0.42 0.46 0.61 0.73 0.66 0.40 0.38 0.45 0.47 0.38 0.38 0.40 0.48 0.57 0.71 1.04 1.19 1.26 1.35 1.40 1.35 1.25 1.09 0.97 0.86 0.75 0.63 0.56 0.51 0.48 0.46 0.45 0.40 0.34 0.30 0.30 0.28 0.29 0.27 0.24 0.22 0.20
0.09 0.16 0.43 0.56 0.77 0.91 0.76 0.34 0.21 0.37 0.65 0.47 0.33 0.32 0.41 0.57 0.75 0.85 0.90 1.00 1.05 1.00 0.92 0.88 0.84 0.79 0.71 0.63 0.53 0.51 0.50 0.45 0.39 0.33 0.27 0.22 0.20 0.21 0.21 0.22 0.24 0.22 0.21 0.20
0.28 0.31 0.48 0.63 0.78 0.83 0.40 0.18 0.25 0.64 0.85 0.66 0.51 0.47 0.52 0.70 0.72 0.56 0.52 0.64 0.71 0.73 0.75 0.71 0.67 0.65 0.59 0.49 0.41 0.41 0.40 0.35 0.27 0.21 0.19 0.16 0.15 0.15 0.16 0.19 0.22 0.22 0.21 0.20
0.40 0.47 0.54 0.65 0.82 0.88 0.32 0.23 0.48 0.58 0.48 0.52 0.53 0.54 0.57 0.54 0.47 0.41 0.40 0.48 0.60 0.70 0.74 0.68 0.62 0.56 0.45 0.37 0.35 0.37 0.34 0.24 0.19 0.17 0.16 0.15 0.13 0.10 0.11 0.19 0.24 0.22 0.22 0.23
0.60 0.55 0.58 0.70 0.76 0.52 0.25 0.25 0.27 0.29 0.33 0.34 0.36 0.38 0.45 0.50 0.47 0.43 0.46 0.53 0.61 0.70 0.73 0.65 0.53 0.45 0.35 0.29 0.30 0.32 0.27 0.20 0.18 0.20 0.20 0.18 0.15 0.14 0.13 0.18 0.22 0.21 0.21 0.19
0.71 0.57 0.54 0.62 0.58 0.40 0.27 0.22 0.19 0.22 0.28 0.29 0.31 0.34 0.44 0.61 0.64 0.58 0.55 0.61 0.63 0.62 0.55 0.47 0.39 0.32 0.26 0.22 0.21 0.20 0.16 0.15 0.17 0.20 0.18 0.17 0.17 0.19 0.18 0.18 0.13 0.15 0.16 0.14
0.61 0.74 0.82 0.85 0.74 0.55 0.34 0.26 0.25 0.23 0.28 0.35 0.43 0.46 0.49 0.54 0.59 0.60 0.58 0.53 0.47 0.41 0.35 0.30 0.29 0.26 0.19 0.16 0.13 0.11 0.10 0.11 0.17 0.17 0.16 0.16 0.14 0.16 0.21 0.18 0.09 0.07 0.07 0.04
0.38 0.62 1.00 1.14 0.86 0.72 0.55 0.42 0.42 0.41 0.41 0.43 0.42 0.41 0.42 0.39 0.38 0.44 0.45 0.39 0.33 0.29 0.26 0.24 0.21 0.19 0.14 0.11 0.09 0.07 0.06 0.08 0.15 0.19 0.15 0.10 0.09 0.11 0.13 0.16 0.15 0.06 0.01 0.01